Regional Weather Roundup
Issued by NWS

Home | Current Version | Previous Version | Text Only | Print | Product List | Glossary On
Versions: 1 2 3 4 5 6 7 8 9 10 11 12 13 14 15 16 17 18 19 20 21 22 23 24 25 26 27 28 29 30 31 32 33 34 35 36 37 38 39 40 41 42 43 44 45 46 47 48 49 50
000
ASUS43 KMPX 100801
RWRMN
WEATHER ROUNDUP FOR MINNESOTA
NATIONAL WEATHER SERVICE TWIN CITIES/CHANHASSEN MN
200 AM CST SAT DEC 10 2016


NOTE: "FAIR" INDICATES FEW OR NO CLOUDS BELOW 12,000 FEET WITH NO
SIGNIFICANT WEATHER AND/OR OBSTRUCTIONS TO VISIBILITY. N/A MEANS
CURRENT SKY AND/OR WEATHER CONDITIONS ARE NOT AVAILABLE.

MNZ060>063-068>070-100900-
   Twin Cities Metro

CITY           SKY/WX    TMP DP  RH WIND       PRES   REMARKS
TWIN CITIES    PTCLDY     7  -1  70 W7        30.51S WCI  -5
ST PAUL        PTCLDY     8   1  73 NW9       30.53R WCI  -5
CRYSTAL        CLEAR      6  -2  69 NW8       30.50S WCI  -7
BLAINE         CLEAR      7   1  78 W5        30.49S WCI  -2
LAKEVILLE      CLEAR      3   1  92 W6        30.49F WCI  -8
EDEN PRAIRIE   CLEAR      6  -1  73 W3        30.50S
SOUTH ST PAUL  MOCLDY    10   2  71 W6        30.51R WCI   0
LAKE ELMO      CLOUDY    10   3  72 NW8       30.50S WCI  -1
$$
MNZ001>005-007-008-013>017-022>024-027-028-100900-
   Northwest Minnesota

CITY           SKY/WX    TMP DP  RH WIND       PRES   REMARKS
BEMIDJI        CLOUDY    -3  -8  78 W7        30.45S WCI -17
HALLOCK        CLOUDY    -6 -11  77 NW8       30.54F WCI -21
ROSEAU         PTCLDY    -8 -11  84 W6        30.49S WCI -21
WARROAD        CLEAR     -9 -15  77 W3        30.47S
THIEF RVR FALL FLURRIES  -7 -11  83 NW5       30.50F WCI -18
CROOKSTON      FLURRIES  -4  -8  84 W5        30.55R WCI -15
FOSSTON        CLOUDY   -15 -18  84 CALM      30.48F
DETROIT LAKES  CLOUDY    -8  -9  92 NW5       30.48S WCI -19
MOORHEAD       CLOUDY    -9 -15  77 W3        30.55S
PARK RAPIDS    CLOUDY    -2 -10  69 W9        30.45R WCI -18
$$
MNZ006-009>011-018-025>026-100900-
   North Central Minnesota

CITY           SKY/WX    TMP DP  RH WIND       PRES   REMARKS
BAUDETTE       CLEAR     -8 -12  83 W8        30.44S WCI -24
FLAG ISLAND    CLEAR     -4  -8  84 W10       30.44F WCI -21
INTL FALLS     CLEAR     -6 -10  83 W5        30.43S WCI -17
WASKISH        CLOUDY     0  -8  71 NW8       30.45S WCI -15
BIG FORK       CLOUDY    -6  -9  84 CALM      30.44S
LONGVILLE      CLOUDY     1  -4  78 NW6       30.44F WCI -10
GRAND RAPIDS   FLURRIES   1  -5  75 NW9       30.45S WCI -14
CRANE LAKE     CLOUDY    -6  -9  84 CALM      30.45F
ORR            CLOUDY    -6 -11  77 CALM      30.39S
COOK           CLOUDY    -4  -8  84 W6        30.42S WCI -16
$$
MNZ012-019>021-037-100900-
   Northeast Minnesota

CITY           SKY/WX    TMP DP  RH WIND       PRES   REMARKS
DULUTH         CLOUDY     5   0  79 NW7       30.40R HAZE    WCI  -7
ELY            CLOUDY     0  -6  78 W7        30.38F WCI -13
HIBBING        MIX PCPN   1  -5  75 N10       30.42R WCI -15
EVELETH        MOCLDY     2  -5  72 NW6       30.42S WCI  -9
DULUTH HARBOR  CLOUDY    10   1  67 W9        30.49R WCI  -2
TWO HARBORS    CLEAR     -6 -11  77 CALM      30.41S
SILVER BAY     CLOUDY     5  -2  72 W3        30.40S
GRAND MARAIS     N/A     10   1  67 W3        30.42S
G MARAIS ARPRT LGT SNOW   3  -4  72 NW3       30.29S
$$
MNZ029>031-032-039>041-046>048-054>057-064-100900-
   West Central Minnesota

CITY           SKY/WX    TMP DP  RH WIND       PRES   REMARKS
FERGUS FALLS   CLOUDY   -11 -15  84 NW6       30.58R WCI -25
WHEATON        CLEAR     -6  -9  84 W6        30.56F WCI -18
MORRIS         CLEAR     -6  -9  84 NW6       30.51S WCI -18
ALEXANDRIA     CLEAR     -4  -8  83 NW5       30.47F WCI -15
ELBOW LAKE     FAIR      -8 -11  84 W8        30.51S WCI -24
WADENA         CLOUDY    -4  -9  77 NW6       30.46F WCI -16
GLENWOOD       CLEAR     -6  -9  84 CALM      30.49R
APPLETON       CLEAR     -2  -8  78 CALM      30.55R
BENSON         CLEAR     -2  -8  78 N7        30.52S WCI -16
ORTONVILLE     CLEAR     -2  -9  71 CALM      30.53F
MADISON        CLEAR      1  -4  78 N8        30.54F WCI -12
WILLMAR        FAIR       0  -2  92 CALM      30.53R
$$
MNZ033>034-036-042>043-049>051-058-059-100900-
   Central Minnesota

CITY           SKY/WX    TMP DP  RH WIND       PRES   REMARKS
ST CLOUD       CLEAR      1  -2  87 NW6       30.49S WCI -10
PAYNESVILLE    PTCLDY    -1  -4  85 W3        30.51R
AITKIN         CLOUDY     7  -6  56 W6        30.44S WCI  -3
PINE RIVER     CLOUDY     1  -2  85 N8        30.47S WCI -12
BRAINERD       CLOUDY     3  -4  72 NW7       30.46S WCI  -9
LONG PRAIRIE   FAIR      -4  -8  84 W3        30.47F
LITTLE FALLS   CLEAR      1  -4  78 CALM      30.49S
LITCHFIELD     CLEAR      1  -2  85 NW5       30.51R WCI  -8
BUFFALO        CLEAR      4   0  81 W3        30.51F
MAPLE LAKE     CLEAR      4   1  86 CALM      30.51S
HUTCHINSON     CLEAR      4   0  83 W8        30.52R WCI  -9
$$
MNZ037-044-045-052-053-100900-
   East Central Minnesota

CITY           SKY/WX    TMP DP  RH WIND       PRES   REMARKS
PRINCETON      CLEAR      5   0  78 W6        30.48S WCI  -6
MORA           CLOUDY    10   1  67 NW7       30.48S WCI   0
CAMBRIDGE      CLOUDY     9   0  66 W3        30.47R
RUSH CITY      CLOUDY    10   1  67 W5        30.48R WCI   2
MOOSE LAKE     CLOUDY    10   0  61 NW5       30.44R WCI   2
HINCKLEY       LGT SNOW  12   7  79 W5        30.46S WCI   4
CLOQUET        CLOUDY     7  -2  66 NW7       30.42R WCI  -5
MCGREGOR       CLOUDY     7   0  72 NW7       30.45S WCI  -5
$$
MNZ071>073-080-081-089-090-097-098-100900-
   Southwest Minnesota

CITY           SKY/WX    TMP DP  RH WIND       PRES   REMARKS
MONTEVIDEO     CLEAR      0  -6  78 N3        30.56S
GRANITE FALLS  CLOUDY     4   0  82 W5        30.55S WCI  -5
CANBY          CLOUDY     3  -1  84 CALM      30.53F
MARSHALL       CLOUDY     4  -1  80 N9        30.51F WCI -10
REDWOOD FALLS  CLOUDY     4  -3  73 NW7       30.54R WCI  -8
OLIVIA         CLEAR      1  -4  78 CALM      30.53R
PIPESTONE      CLOUDY     7   1  78 E5        30.43F WCI  -2
WINDOM         CLOUDY     7   1  78 MISG      30.49R
WORTHINGTON    FLURRIES   7   3  84 N7        30.46F WCI  -5
JACKSON        CLOUDY     7   3  85 N5        30.48S FOG     WCI  -2
TRACY          CLOUDY     7   2  82 N8        30.49F WCI  -6
SLAYTON        CLOUDY     5   2  86 N7        30.47S WCI  -7
$$
MNZ065>067-074>077-082>085-091>093-100900-
   South Central Minnesota

CITY           SKY/WX    TMP DP  RH WIND       PRES   REMARKS
MANKATO        PTCLDY     6   0  76 NW10      30.52  WCI  -9
NEW ULM        CLOUDY     5   0  78 NW7       30.52S WCI  -7
ST JAMES       CLOUDY     7   1  78 NW8       30.53R WCI  -6
FAIRMONT       FLURRIES   8   4  83 N10       30.51R WCI  -6
GLENCOE        CLEAR      5   2  87 CALM      30.52R
OWATONNA       FLURRIES   9   3  78 NW7       30.49R WCI  -3
WASECA         LGT SNOW  10   5  79 NW10      30.51R WCI  -3
ALBERT LEA     CLOUDY    14  10  85 NW7       30.48R WCI   4
$$
MNZ078>079-086>088-094>096-100900-
   Southeast Minnesota

CITY           SKY/WX    TMP DP  RH WIND       PRES   REMARKS
ROCHESTER      CLOUDY     7   3  84 NW10      30.46R WCI  -8
RED WING       MOCLDY     9   3  78 W6        30.49S WCI  -1
STANTON        PTCLDY     8   3  79 W3        30.49S
DODGE CENTER   PTCLDY     7   3  85 W9        30.46S WCI  -7
WINONA         CLEAR     12   7  79 NW6       30.51S WCI   3
AUSTIN         FLURRIES  10   7  85 NW7       30.47S WCI   0
PRESTON        CLOUDY     9   5  84 NW5       30.46S WCI   1
$$
ABBREVIATIONS USED IN REMARKS
   TC - TEMPERATURES IN CELSIUS
  WCI - WIND CHILL INDEX
   HX - HEAT INDEX
  VSB - VISIBILITY
$$




USA.gov is the U.S. government's official web portal to all federal, state and local government web resources and services.